Weather reports worldwide

Advertisment
Ile Rousse, France (7753): temperature & dewpoint: 19.09.2020 01:00:00 - 25.09.2020 01:00:00 (CEST)Ile Rousse, France (7753): wind speed & gusts: 19.09.2020 01:00:00 - 25.09.2020 01:00:00 (CEST)Ile Rousse, France (7753): wind direction: 19.09.2020 01:00:00 - 25.09.2020 01:00:00 (CEST)Ile Rousse, France (7753): reduced air pressure: 19.09.2020 01:00:00 - 25.09.2020 01:00:00 (CEST)Ile Rousse, France (7753): visibility: 19.09.2020 01:00:00 - 25.09.2020 01:00:00 (CEST)Ile Rousse, France (7753): precipitation: 19.09.2020 01:00:00 - 25.09.2020 01:00:00 (CEST)
Date & Time tt [°C] td [°C] ff [km/h] ff [kn] fx [km/h] fx [kn] dd ppp [hPa] vv [km] rr [mm]
25.09.2020 01:00:00 21,8 17,4 44 24 74 40 SW 1004,4 - 0,0
25.09.2020 00:00:00 18,9 18,1 13 7 83 45 SW 1005,8 - 0,0
24.09.2020 23:00:00 19,8 16,6 33 18 95 51 W 1006,2 - 0,0
24.09.2020 22:00:00 22,6 16,8 8 4 16 9 NNE 1007,3 - 0,0
24.09.2020 21:00:00 21,8 16,5 8 5 19 11 E 1007,7 - 0,0
24.09.2020 20:00:00 20,9 16,7 5 3 39 21 ESE 1008,6 15 0,0
24.09.2020 19:00:00 20,4 17,6 32 17 64 35 NW 1009,4 - 0,0
24.09.2020 18:00:00 22,8 19,8 26 14 54 29 WSW 1008,9 - 0,0
24.09.2020 17:00:00 25,9 16,4 32 17 67 36 WSW 1008,7 15 0,0
24.09.2020 16:00:00 26,2 18,8 42 23 68 37 WSW 1008,9 - 0,0
24.09.2020 15:00:00 26,0 19,4 18 10 43 23 WSW 1009,8 - 0,0
24.09.2020 14:00:00 25,7 17,4 28 15 56 30 WSW 1009,9 - 0,0
24.09.2020 13:00:00 25,8 17,4 32 17 52 28 W 1010,2 - 0,0
24.09.2020 12:00:00 25,4 17,8 23 12 40 22 WSW 1011,1 - 0,0
24.09.2020 11:00:00 25,4 16,8 10 5 22 12 W 1011,4 20 0,0
24.09.2020 10:00:00 23,9 15,9 6 4 13 7 ENE 1011,4 - 0,0
24.09.2020 09:00:00 22,7 15,0 6 3 16 9 W 1010,8 - 0,0
24.09.2020 08:00:00 22,3 12,8 13 7 33 18 E 1010,2 - 0,0
24.09.2020 07:00:00 23,2 13,7 22 12 33 18 SW 1010,3 - 0,0
24.09.2020 06:00:00 22,8 14,6 18 10 41 22 SW 1010,4 - 0,0
24.09.2020 05:00:00 22,6 15,2 23 12 53 29 SW 1010,4 - 0,0
24.09.2020 04:00:00 22,7 14,8 29 16 48 26 SW 1010,7 - 0,0
24.09.2020 03:00:00 22,6 14,4 23 12 42 23 SW 1011,0 - 0,0
24.09.2020 02:00:00 22,7 14,3 29 15 47 25 SW 1011,1 20 0,0
24.09.2020 01:00:00 22,5 14,3 26 14 55 30 SW 1011,0 - 0,0
24.09.2020 00:00:00 22,8 14,6 31 17 51 28 SW 1010,7 - 0,0
23.09.2020 23:00:00 23,0 13,7 28 15 58 32 WSW 1010,7 - 0,0
23.09.2020 22:00:00 23,0 13,7 35 19 56 30 SW 1010,3 - 0,0
23.09.2020 21:00:00 22,9 14,2 32 17 68 37 SW 1010,1 - 0,0
23.09.2020 20:00:00 22,8 14,1 29 16 45 25 WSW 1009,8 20 0,0
23.09.2020 19:00:00 23,1 14,4 26 14 55 30 WSW 1010,0 - 0,0
23.09.2020 18:00:00 24,2 14,9 35 19 57 31 WSW 1009,9 - 0,0
23.09.2020 17:00:00 20,6 16,4 24 13 64 35 WSW 1010,1 - 0,0
23.09.2020 16:00:00 23,0 14,8 29 16 58 31 WSW 1009,9 - 0,0
23.09.2020 15:00:00 23,4 15,4 35 19 63 34 W 1009,9 - 0,0
23.09.2020 14:00:00 25,4 14,5 35 19 64 35 WSW 1009,5 20 0,0
23.09.2020 13:00:00 26,4 13,8 33 18 64 34 WSW 1010,2 - 0,0
23.09.2020 12:00:00 24,3 13,5 33 18 52 28 SW 1010,9 - 0,0
23.09.2020 11:00:00 24,0 14,4 32 18 55 30 SW 1010,8 - 0,2
23.09.2020 10:00:00 21,9 17,5 4 2 17 9 NNE 1011,3 - 0,0
23.09.2020 09:00:00 20,0 15,8 8 4 22 12 WSW 1010,9 - 0,0
23.09.2020 08:00:00 19,5 15,6 7 4 14 7 WSW 1011,1 - 0,0
23.09.2020 07:00:00 19,7 15,3 9 5 17 9 E 1011,5 - 0,0
23.09.2020 06:00:00 20,3 14,0 10 6 24 13 ENE 1011,7 - 0,0
23.09.2020 05:00:00 19,8 14,6 9 5 18 10 SE 1011,3 - 0,0
23.09.2020 04:00:00 20,4 14,7 11 6 22 12 ENE 1011,8 - 0,0
23.09.2020 03:00:00 21,5 11,8 18 10 38 21 SSW 1011,2 - 0,0
23.09.2020 02:00:00 20,6 12,0 15 8 26 14 WSW 1012,1 - 0,0
23.09.2020 01:00:00 20,1 15,7 11 6 18 10 SW 1012,3 - 0,0
23.09.2020 00:00:00 20,5 16,1 10 5 16 9 S 1012,8 - 0,0
22.09.2020 23:00:00 20,6 16,2 9 5 13 7 S 1013,1 - 0,0
22.09.2020 22:00:00 20,6 16,4 9 5 19 10 SSE 1013,4 - 0,0
22.09.2020 21:00:00 20,6 16,6 8 4 14 8 SSE 1013,3 - 0,0
22.09.2020 20:00:00 20,8 16,8 14 8 29 15 WNW 1013,0 20 0,0
22.09.2020 19:00:00 21,1 17,1 13 7 42 23 WSW 1012,2 - 0,0
22.09.2020 18:00:00 22,0 16,5 22 12 35 19 W 1012,7 - 0,0
22.09.2020 17:00:00 22,1 16,6 3 2 14 8 NW 1013,6 20 0,0
22.09.2020 16:00:00 22,5 16,5 5 3 14 8 W 1013,6 - 0,0
22.09.2020 15:00:00 22,5 15,8 8 4 16 9 NNE 1013,6 - 0,0
22.09.2020 14:00:00 22,4 15,7 9 5 25 14 N 1014,1 - 0,0
22.09.2020 13:00:00 23,3 15,4 15 8 33 18 WNW 1014,6 - 0,0
22.09.2020 12:00:00 22,0 16,9 17 9 32 17 W 1014,6 - 0,0
22.09.2020 11:00:00 22,2 17,8 14 8 28 15 W 1014,6 10 0,0
22.09.2020 10:00:00 21,5 16,9 7 4 17 9 NW 1014,7 - 0,0
22.09.2020 09:00:00 20,8 16,8 10 6 27 15 SE 1014,7 - 0,0
22.09.2020 08:00:00 21,4 16,8 7 4 24 13 NNE 1014,6 - 0,0
22.09.2020 07:00:00 20,8 15,8 20 11 33 18 SW 1013,8 - 0,0
22.09.2020 06:00:00 20,8 16,0 13 7 28 15 WSW 1013,9 - 0,0
22.09.2020 05:00:00 21,0 15,8 10 6 22 12 SW 1014,0 - 0,0
22.09.2020 04:00:00 20,9 15,7 13 7 24 13 SW 1014,3 - 0,0
22.09.2020 03:00:00 21,0 15,8 16 9 24 13 SW 1014,6 - 0,0
22.09.2020 02:00:00 21,1 16,3 14 7 26 14 SW 1015,1 15 0,0
22.09.2020 01:00:00 21,0 16,4 16 9 30 16 SW 1015,2 - 0,0
22.09.2020 00:00:00 21,0 16,4 17 9 26 14 WSW 1015,4 - 0,0
21.09.2020 23:00:00 21,1 17,3 19 11 26 14 SW 1015,4 - 0,0
21.09.2020 22:00:00 21,1 17,5 18 10 26 14 SW 1015,2 - 0,0
21.09.2020 21:00:00 21,2 18,2 12 6 29 16 SSW 1015,1 - 0,2
21.09.2020 20:00:00 21,4 18,8 16 8 28 15 WSW 1015,1 20 0,0
21.09.2020 19:00:00 21,6 17,2 9 5 37 20 SSW 1014,7 - 0,0
21.09.2020 18:00:00 22,9 19,3 7 4 24 13 NW 1014,9 - 0,0
21.09.2020 17:00:00 21,5 18,5 17 9 33 18 S 1014,6 - 0,0
21.09.2020 16:00:00 23,2 18,9 15 8 27 14 WSW 1014,6 - 0,0
21.09.2020 15:00:00 23,5 17,0 14 7 37 20 S 1014,4 - 0,0
21.09.2020 14:00:00 23,6 19,1 16 9 33 18 W 1014,9 15 0,0
21.09.2020 13:00:00 24,1 18,1 12 7 26 14 W 1015,3 - 0,0
21.09.2020 12:00:00 24,7 17,7 11 6 20 11 NW 1015,2 - 0,0
21.09.2020 11:00:00 23,4 17,4 9 5 16 9 N 1015,4 - 0,0
21.09.2020 10:00:00 23,2 17,2 8 4 16 9 E 1015,1 - 0,0
21.09.2020 09:00:00 22,3 17,4 5 3 9 5 ENE 1014,9 - 0,0
21.09.2020 08:00:00 21,2 16,4 8 4 10 5 SSE 1014,4 - 0,0
21.09.2020 07:00:00 21,4 16,4 5 3 15 8 WNW 1014,2 - 0,0
21.09.2020 06:00:00 21,2 16,4 8 4 11 6 W 1014,2 - 0,0
21.09.2020 05:00:00 21,5 17,5 3 2 6 4 S 1014,2 - 0,0
21.09.2020 04:00:00 21,3 17,1 0 0 19 11 N 1014,4 - 0,0
21.09.2020 03:00:00 20,8 16,2 18 10 22 12 E 1014,9 - 0,0
21.09.2020 02:00:00 22,5 16,8 5 3 11 6 N 1015,4 - 0,0
21.09.2020 01:00:00 22,3 16,1 9 5 17 9 SE 1015,0 - 0,0
21.09.2020 00:00:00 21,9 16,4 10 5 13 7 E 1014,7 - 0,0
20.09.2020 23:00:00 22,6 16,8 5 3 16 8 SSW 1014,5 - 0,0
20.09.2020 22:00:00 22,6 16,8 9 5 28 15 S 1014,6 - 0,0
20.09.2020 21:00:00 22,8 17,3 18 10 26 14 SW 1014,1 - 0,0
20.09.2020 20:00:00 22,7 18,2 19 10 45 24 SW 1013,9 - 0,0
20.09.2020 19:00:00 23,8 19,3 30 16 46 25 W 1013,5 - 0,0
20.09.2020 18:00:00 24,0 19,5 24 13 50 27 W 1013,2 - 0,0
20.09.2020 17:00:00 25,6 19,7 28 15 50 27 W 1012,7 - 0,0
20.09.2020 16:00:00 24,7 20,0 29 16 62 34 W 1013,1 - 0,0
20.09.2020 15:00:00 26,0 19,9 36 19 62 33 W 1012,8 - 0,2
20.09.2020 14:00:00 25,2 20,9 38 20 57 31 W 1012,7 15 0,0
20.09.2020 13:00:00 25,7 21,1 29 16 55 30 W 1013,7 - 0,0
20.09.2020 12:00:00 25,3 20,1 19 11 34 19 W 1014,1 - 0,0
20.09.2020 11:00:00 24,4 18,6 12 6 19 10 NW 1014,0 18 0,0
20.09.2020 10:00:00 22,9 18,2 9 5 11 6 SE 1014,1 - 0,0
20.09.2020 09:00:00 22,8 18,3 6 3 22 12 W 1013,8 - 0,2
20.09.2020 08:00:00 22,3 16,3 14 7 46 25 SSE 1013,6 12 0,0
20.09.2020 07:00:00 19,9 17,7 27 15 34 19 SSE 1014,7 - 0,0
20.09.2020 06:00:00 20,0 18,3 14 7 53 28 SSE 1014,4 - 0,4
20.09.2020 05:00:00 23,5 13,7 8 4 11 6 E 1014,0 - 0,2
20.09.2020 04:00:00 24,3 12,9 7 4 11 6 S 1014,4 - 0,0
20.09.2020 03:00:00 23,3 15,1 11 6 14 7 WSW 1014,9 - 0,0
20.09.2020 02:00:00 24,5 13,4 5 3 10 5 WSW 1014,9 - 0,0
20.09.2020 01:00:00 24,8 13,4 8 4 10 5 SE 1014,9 - 0,0
20.09.2020 00:00:00 24,0 17,3 5 3 8 5 NE 1015,3 - 0,0
19.09.2020 23:00:00 23,6 13,7 6 3 7 4 SSE 1015,4 - 0,0
19.09.2020 22:00:00 23,8 18,9 7 4 10 5 W 1015,5 - 0,0
19.09.2020 21:00:00 23,7 17,9 7 4 10 5 WSW 1015,6 - 0,0
19.09.2020 20:00:00 24,6 16,6 4 2 11 6 WSW 1015,3 20 0,0
19.09.2020 19:00:00 25,7 16,5 11 6 14 7 E 1015,2 - 0,0
19.09.2020 18:00:00 25,9 16,4 5 3 13 7 NNW 1015,6 - 0,0
19.09.2020 17:00:00 27,0 16,6 5 3 13 7 N 1015,5 - 0,0
19.09.2020 16:00:00 25,7 17,9 6 3 21 11 NE 1015,7 - 0,0
19.09.2020 15:00:00 24,8 19,4 10 5 18 10 NE 1016,2 - 0,0
19.09.2020 14:00:00 24,9 19,9 11 6 18 10 NNE 1016,8 - 0,0
19.09.2020 13:00:00 26,0 20,6 10 5 22 12 NW 1017,1 - 0,0
19.09.2020 12:00:00 25,9 18,1 11 6 17 9 WNW 1017,2 - 0,0
19.09.2020 11:00:00 25,6 16,2 6 3 13 7 NNE 1017,4 18 0,0
19.09.2020 10:00:00 24,6 18,3 7 4 12 6 NE 1017,5 - 0,0
19.09.2020 09:00:00 23,7 17,9 2 1 8 4 NNW 1017,7 - 0,0
19.09.2020 08:00:00 23,6 15,6 2 1 9 5 W 1017,3 - 0,0
19.09.2020 07:00:00 23,7 14,1 3 2 9 5 WSW 1016,7 - 0,0
19.09.2020 06:00:00 22,8 17,3 3 2 13 7 SW 1016,9 - 0,0
19.09.2020 05:00:00 22,7 16,9 12 6 21 11 W 1017,2 - 0,0
19.09.2020 04:00:00 22,5 16,8 9 5 14 7 WSW 1017,1 - 0,0
19.09.2020 03:00:00 22,6 17,7 10 5 13 7 E 1017,2 - 0,0
19.09.2020 02:00:00 22,6 17,5 6 4 22 12 W 1017,7 - 0,0
19.09.2020 01:00:00 22,7 18,0 14 7 21 11 W 1017,8 - 0,0

tt = temperature
td = dewpoint
ff = wind speed
fx = gusts
dd = wind direction
ppp = reduced air pressure
vv = visibility
rr = precipitation

Next stations